AXM703 WMKK-WSSS

Flight info

Callsign AXM703
Flight time N/A
Altitude 27000
Route RUSBU1D RUSBU Y511 TOPOR A464 ARAMA DCT TEBUN TEBUN1A
Aircraft A20N/M-SDE2E3FGHIRWXY/LB1

Departure

Time N/A
Airport Kuala Lumpur International Airport (WMKK)

Arrival

Time 2026-05-06 17:18
Airport Singapore Changi Airport (WSSS)
Time Latitude Longitude Altitude Speed Heading
2026-05-06 16:53 1.91251 102.65762 26837 ft 448 kts 125°
2026-05-06 16:53 1.89383 102.68262 26837 ft 449 kts 125°
2026-05-06 16:53 1.87494 102.70770 26836 ft 449 kts 126°
2026-05-06 16:53 1.85587 102.73296 26833 ft 449 kts 126°
2026-05-06 16:54 1.83716 102.75777 26834 ft 449 kts 126°
2026-05-06 16:54 1.81846 102.78260 26835 ft 449 kts 125°
2026-05-06 16:54 1.79953 102.80778 26835 ft 449 kts 126°
2026-05-06 16:54 1.78087 102.83258 26835 ft 449 kts 126°
2026-05-06 16:55 1.76219 102.85740 26833 ft 449 kts 125°
2026-05-06 16:55 1.74394 102.88308 26834 ft 448 kts 122°
2026-05-06 16:55 1.72734 102.90928 26835 ft 448 kts 119°
2026-05-06 16:55 1.71215 102.93632 26675 ft 449 kts 117°
2026-05-06 16:56 1.69733 102.96407 25983 ft 450 kts 116°
2026-05-06 16:56 1.68284 102.99153 25379 ft 445 kts 116°
2026-05-06 16:56 1.66839 103.01893 24798 ft 441 kts 116°
2026-05-06 16:56 1.65431 103.04549 24255 ft 436 kts 116°
2026-05-06 16:57 1.64016 103.07210 23710 ft 431 kts 117°
2026-05-06 16:57 1.62513 103.09782 23154 ft 428 kts 125°
2026-05-06 16:57 1.60436 103.11913 22609 ft 428 kts 140°
2026-05-06 16:57 1.57899 103.13432 22074 ft 428 kts 154°
2026-05-06 16:58 1.55141 103.14557 21550 ft 425 kts 156°
2026-05-06 16:58 1.52384 103.15638 21013 ft 422 kts 156°
2026-05-06 16:58 1.49643 103.16711 20470 ft 419 kts 156°
2026-05-06 16:58 1.46935 103.17777 19933 ft 416 kts 156°
2026-05-06 16:59 1.44252 103.18839 19394 ft 413 kts 156°
2026-05-06 16:59 1.41589 103.19898 18849 ft 410 kts 156°
2026-05-06 16:59 1.38953 103.20947 18316 ft 408 kts 156°
2026-05-06 16:59 1.36325 103.21998 17767 ft 405 kts 156°
2026-05-06 17:00 1.33718 103.23039 17235 ft 403 kts 156°
2026-05-06 17:00 1.31133 103.24070 16697 ft 400 kts 156°
2026-05-06 17:00 1.28554 103.25097 16174 ft 397 kts 156°
2026-05-06 17:00 1.26012 103.26142 15659 ft 393 kts 154°
2026-05-06 17:01 1.23552 103.27330 15141 ft 389 kts 150°
2026-05-06 17:01 1.21178 103.28655 14628 ft 385 kts 148°
2026-05-06 17:01 1.18891 103.29978 14249 ft 377 kts 148°
2026-05-06 17:01 1.16641 103.31287 13835 ft 369 kts 148°
2026-05-06 17:02 1.14455 103.32559 13243 ft 355 kts 148°
2026-05-06 17:02 1.12373 103.33768 12888 ft 332 kts 148°
2026-05-06 17:02 1.10449 103.34884 12739 ft 306 kts 148°
2026-05-06 17:02 1.08654 103.35927 12614 ft 296 kts 148°
2026-05-06 17:03 1.06897 103.36948 12439 ft 289 kts 147°
2026-05-06 17:03 1.05184 103.37942 12372 ft 275 kts 148°
2026-05-06 17:03 1.03544 103.38893 12319 ft 268 kts 147°
2026-05-06 17:03 1.01930 103.39829 12271 ft 268 kts 147°
2026-05-06 17:04 1.00310 103.40767 12222 ft 268 kts 147°
2026-05-06 17:04 0.98718 103.41719 12115 ft 268 kts 141°
2026-05-06 17:04 0.97561 103.43130 11807 ft 259 kts 109°
2026-05-06 17:04 0.97259 103.44859 11516 ft 255 kts 92°
2026-05-06 17:05 0.97174 103.46622 11238 ft 255 kts 92°
2026-05-06 17:05 0.97068 103.48389 11023 ft 249 kts 93°
2026-05-06 17:05 0.96949 103.50076 10763 ft 245 kts 94°
2026-05-06 17:05 0.96820 103.51778 10463 ft 244 kts 94°
2026-05-06 17:06 0.96688 103.53456 10152 ft 243 kts 94°
2026-05-06 17:06 0.96554 103.55145 9847 ft 242 kts 94°
2026-05-06 17:06 0.96487 103.56799 9561 ft 241 kts 88°
2026-05-06 17:06 0.96612 103.58461 9287 ft 240 kts 83°
2026-05-06 17:07 0.96839 103.60115 9040 ft 239 kts 82°
2026-05-06 17:07 0.97071 103.61738 9017 ft 239 kts 82°
2026-05-06 17:07 0.97308 103.63397 8739 ft 239 kts 82°
2026-05-06 17:07 0.97538 103.65029 8455 ft 238 kts 82°
2026-05-06 17:08 0.97765 103.66661 8168 ft 237 kts 82°
2026-05-06 17:08 0.97990 103.68285 7884 ft 236 kts 82°
2026-05-06 17:08 0.98217 103.69922 7594 ft 236 kts 82°
2026-05-06 17:08 0.98578 103.71500 7304 ft 235 kts 69°
2026-05-06 17:09 0.99315 103.72956 7015 ft 234 kts 58°
2026-05-06 17:09 1.00185 103.74320 6734 ft 234 kts 57°
2026-05-06 17:09 1.01068 103.75668 6449 ft 232 kts 57°
2026-05-06 17:09 1.01956 103.77027 6148 ft 229 kts 57°
2026-05-06 17:10 1.02807 103.78339 5850 ft 220 kts 57°
2026-05-06 17:10 1.03618 103.79594 5606 ft 208 kts 57°
2026-05-06 17:10 1.04407 103.80817 5388 ft 208 kts 57°
2026-05-06 17:10 1.05183 103.82023 5098 ft 206 kts 57°
2026-05-06 17:11 1.05955 103.83225 4810 ft 205 kts 57°
2026-05-06 17:11 1.06721 103.84418 4519 ft 204 kts 57°
2026-05-06 17:11 1.07629 103.85515 4226 ft 202 kts 46°
2026-05-06 17:11 1.08678 103.86417 4005 ft 200 kts 36°
2026-05-06 17:12 1.09895 103.87139 3975 ft 201 kts 27°
2026-05-06 17:12 1.11166 103.87733 3970 ft 201 kts 24°
2026-05-06 17:12 1.12422 103.88272 3951 ft 190 kts 23°
2026-05-06 17:12 1.13597 103.88766 3981 ft 175 kts 23°
2026-05-06 17:13 1.14720 103.89236 3970 ft 175 kts 24°
2026-05-06 17:13 1.15843 103.89707 3863 ft 174 kts 24°
2026-05-06 17:13 1.16957 103.90175 3649 ft 173 kts 24°
2026-05-06 17:13 1.18078 103.90646 3428 ft 172 kts 24°
2026-05-06 17:14 1.19168 103.91105 3197 ft 165 kts 24°
2026-05-06 17:14 1.20200 103.91540 2975 ft 155 kts 24°
2026-05-06 17:14 1.21188 103.91956 2787 ft 154 kts 24°
2026-05-06 17:14 1.22186 103.92378 2595 ft 154 kts 24°
2026-05-06 17:15 1.23167 103.92792 2409 ft 153 kts 24°
2026-05-06 17:15 1.24166 103.93214 2215 ft 153 kts 24°
2026-05-06 17:15 1.25142 103.93626 2022 ft 153 kts 24°
2026-05-06 17:15 1.26133 103.94044 1825 ft 152 kts 24°
2026-05-06 17:16 1.27104 103.94453 1630 ft 152 kts 24°
2026-05-06 17:16 1.28076 103.94864 1433 ft 152 kts 24°
2026-05-06 17:16 1.29060 103.95280 1235 ft 152 kts 24°
2026-05-06 17:16 1.30031 103.95690 1038 ft 149 kts 24°
2026-05-06 17:17 1.30966 103.96085 833 ft 142 kts 23°
2026-05-06 17:17 1.31879 103.96464 676 ft 141 kts 21°
2026-05-06 17:17 1.32795 103.96829 485 ft 141 kts 23°
2026-05-06 17:17 1.33693 103.97231 302 ft 141 kts 23°
2026-05-06 17:18 1.34613 103.97625 125 ft 142 kts 22°
2026-05-06 17:18 1.35509 103.98003 29 ft 133 kts 22°
2026-05-06 17:18 1.36227 103.98302 28 ft 87 kts 22°
2026-05-06 17:18 1.36584 103.98455 28 ft 24 kts 27°
2026-05-06 17:19 1.36685 103.98541 28 ft 18 kts 48°
2026-05-06 17:19 1.36734 103.98602 28 ft 8 kts 52°
2026-05-06 17:19 1.36735 103.98604 28 ft 0 kts 52°
2026-05-06 17:21 1.36736 103.98605 28 ft 0 kts 52°
2026-05-06 17:21 1.36756 103.98631 28 ft 13 kts 53°
2026-05-06 17:21 1.36814 103.98707 28 ft 13 kts 52°
2026-05-06 17:22 1.36837 103.98811 28 ft 17 kts 110°
2026-05-06 17:22 1.36789 103.98928 28 ft 18 kts 114°
2026-05-06 17:22 1.36738 103.99043 28 ft 18 kts 113°
2026-05-06 17:22 1.36688 103.99159 28 ft 18 kts 113°
2026-05-06 17:23 1.36639 103.99275 28 ft 18 kts 112°
2026-05-06 17:23 1.36590 103.99390 28 ft 18 kts 113°
2026-05-06 17:23 1.36539 103.99508 28 ft 18 kts 113°
2026-05-06 17:23 1.36488 103.99625 28 ft 18 kts 113°
2026-05-06 17:24 1.36433 103.99756 28 ft 25 kts 118°
2026-05-06 17:24 1.36332 103.99761 28 ft 16 kts 201°
2026-05-06 17:24 1.36226 103.99718 28 ft 16 kts 203°
2026-05-06 17:24 1.36102 103.99665 28 ft 20 kts 203°
2026-05-06 17:25 1.35972 103.99610 28 ft 19 kts 203°
2026-05-06 17:25 1.35846 103.99556 28 ft 19 kts 202°
2026-05-06 17:25 1.35719 103.99503 28 ft 19 kts 202°
2026-05-06 17:25 1.35596 103.99451 28 ft 19 kts 202°
2026-05-06 17:26 1.35472 103.99400 28 ft 19 kts 201°
2026-05-06 17:26 1.35358 103.99354 28 ft 0 kts 203°
2026-05-06 17:27 1.35319 103.99337 28 ft 15 kts 203°
2026-05-06 17:27 1.35217 103.99294 28 ft 16 kts 204°
2026-05-06 17:27 1.35111 103.99248 28 ft 18 kts 202°
2026-05-06 17:28 1.34989 103.99197 28 ft 18 kts 203°
2026-05-06 17:28 1.34869 103.99144 28 ft 18 kts 203°
2026-05-06 17:28 1.34748 103.99094 28 ft 18 kts 202°
2026-05-06 17:28 1.34626 103.99042 28 ft 18 kts 203°
2026-05-06 17:29 1.34507 103.98991 28 ft 18 kts 203°
2026-05-06 17:29 1.34387 103.98940 28 ft 18 kts 203°
2026-05-06 17:29 1.34268 103.98890 28 ft 18 kts 202°
2026-05-06 17:29 1.34148 103.98840 28 ft 18 kts 203°
2026-05-06 17:30 1.34046 103.98774 28 ft 17 kts 257°
2026-05-06 17:30 1.34078 103.98675 28 ft 9 kts 310°
2026-05-06 17:30 1.34112 103.98644 28 ft 4 kts 312°
2026-05-06 17:30 1.34125 103.98625 28 ft 0 kts 294°
2026-05-06 17:31 1.34128 103.98618 28 ft 1 kts 294°
2026-05-06 17:31 1.34130 103.98613 28 ft 0 kts 293°